TimeAST,TemperatureF,Dew PointF,Humidity,Sea Level PressureIn,VisibilityMPH,Wind Direction,Wind SpeedMPH,Gust SpeedMPH,PrecipitationIn,Events,Conditions,WindDirDegrees,DateUTC
12:53 AM,75.0,64.9,71,30.04,10.0,ENE,10.4,-,N/A,,Scattered Clouds,60,2013-03-06 04:53:00
1:53 AM,75.0,64.0,69,30.01,10.0,NE,16.1,20.7,N/A,,Overcast,50,2013-03-06 05:53:00
2:53 AM,75.0,64.0,69,29.99,10.0,ENE,11.5,18.4,N/A,,Partly Cloudy,60,2013-03-06 06:53:00
3:53 AM,75.0,64.9,71,30.00,10.0,SE,3.5,-,N/A,,Overcast,140,2013-03-06 07:53:00
4:53 AM,75.0,64.9,71,30.00,10.0,NE,6.9,-,N/A,,Overcast,50,2013-03-06 08:53:00
5:53 AM,75.0,66.0,73,30.01,10.0,NE,13.8,17.3,N/A,,Overcast,50,2013-03-06 09:53:00
6:53 AM,75.0,64.9,71,30.03,10.0,NE,18.4,23.0,N/A,,Overcast,40,2013-03-06 10:53:00
7:53 AM,75.9,64.9,69,30.04,10.0,ENE,11.5,18.4,N/A,,Overcast,60,2013-03-06 11:53:00
8:53 AM,77.0,64.9,66,30.07,10.0,East,4.6,-,N/A,,Overcast,80,2013-03-06 12:53:00
9:53 AM,80.1,66.0,62,30.08,10.0,NNE,9.2,19.6,N/A,,Overcast,20,2013-03-06 13:53:00
10:53 AM,80.1,66.0,62,30.08,10.0,East,11.5,17.3,N/A,,Mostly Cloudy,80,2013-03-06 14:53:00
11:53 AM,80.1,66.9,64,30.07,10.0,NE,12.7,20.7,N/A,,Overcast,50,2013-03-06 15:53:00
1:53 PM,79.0,68.0,69,30.03,10.0,NE,10.4,-,N/A,,Overcast,40,2013-03-06 17:53:00
2:35 PM,78.8,68.0,69,30.02,10.0,East,9.2,-,N/A,,Overcast,90,2013-03-06 18:35:00
2:53 PM,77.0,69.1,76,30.02,9.0,East,8.1,-,N/A,,Overcast,100,2013-03-06 18:53:00
3:18 PM,77.0,69.8,78,30.01,10.0,Variable,3.5,-,N/A,,Overcast,0,2013-03-06 19:18:00
3:53 PM,79.0,69.1,72,30.00,10.0,NE,12.7,18.4,N/A,,Overcast,40,2013-03-06 19:53:00
4:53 PM,80.1,69.1,69,29.99,10.0,NE,11.5,-,N/A,,Partly Cloudy,50,2013-03-06 20:53:00
5:53 PM,78.1,69.1,74,30.01,10.0,ENE,6.9,-,N/A,,Partly Cloudy,70,2013-03-06 21:53:00
6:53 PM,75.9,69.1,79,30.02,10.0,East,9.2,-,N/A,,Clear,100,2013-03-06 22:53:00
7:53 PM,75.9,69.1,79,30.02,10.0,East,10.4,-,N/A,,Clear,100,2013-03-06 23:53:00
8:53 PM,75.0,69.1,82,30.04,10.0,East,5.8,-,N/A,,Mostly Cloudy,80,2013-03-07 00:53:00
9:53 PM,75.0,70.0,84,30.05,10.0,East,4.6,-,N/A,,Clear,90,2013-03-07 01:53:00
10:53 PM,75.0,70.0,84,30.05,10.0,East,4.6,-,N/A,,Clear,80,2013-03-07 02:53:00
11:53 PM,75.0,70.0,84,30.04,10.0,East,4.6,-,N/A,,Clear,90,2013-03-07 03:53:00